EW7948 Weather Reports


time (UTC)temp
F
wind
direction
speed
knots
gust
knots
rain 1hr
in
rain 24hr
in
rain mn
in
humidity
%
barometer
mb
20260510060040 70 327 7.0 11.3 0.00 0.00 0.00 10 1007.5
20260510054531 71 326 5.2 10.4 0.00 0.00 0.00 11 1007.3
20260510053029 71 344 7.8 14.8 0.00 0.00 0.00 11 1007.2
20260510051529 71 338 6.1 13.9 0.00 0.00 0.00 13 1007.1
20260510050028 71 331 5.2 12.2 0.00 0.00 0.00 16 1007.0
20260510044526 72 340 8.7 12.2 0.00 0.00 0.00 13 1006.9
20260510043024 72 336 13.0 20.9 0.00 0.00 0.00 13 1006.4
20260510041532 73 339 8.7 13.9 0.00 0.00 0.00 13 1006.0
20260510040023 74 360 7.0 13.9 0.00 0.00 0.00 10 1005.8
20260510034600 74 348 7.0 13.9 0.00 0.00 0.00 9 1005.6
20260510033057 74 346 8.7 13.0 0.00 0.00 0.00 8 1005.2
20260510031603 75 343 8.7 14.8 0.00 0.00 0.00 7 1004.9
20260510030058 76 345 11.3 14.8 0.00 0.00 0.00 6 1004.6
20260510024528 76 342 11.3 17.4 0.00 0.00 0.00 7 1004.3
20260510023017 76 355 10.4 15.6 0.00 0.00 0.00 7 1003.9
20260510021517 77 350 7.8 11.3 0.00 0.00 0.00 9 1003.7
20260510020117 78 346 10.4 13.9 0.00 0.00 0.00 7 1003.5
20260510014515 80 355 8.7 13.9 0.00 0.00 0.00 7 1003.5
20260510013014 81 351 7.8 13.9 0.00 0.00 0.00 7 1003.2
20260510011514 82 24 8.7 14.8 0.00 0.00 0.00 6 1002.9
20260510010013 82 341 7.0 10.4 0.00 0.00 0.00 8 1002.8
20260510004513 83 321 7.8 13.9 0.00 0.00 0.00 7 1002.8
20260510003013 83 349 7.8 10.4 0.00 0.00 0.00 6 1002.9
20260510001512 84 360 7.8 13.0 0.00 0.00 0.00 5 1002.9
20260510000010 84 290 5.2 13.9 0.00 0.00 0.00 6 1002.9
20260509234513 84 309 7.0 10.4 0.00 0.00 0.00 8 1002.9
20260509233009 84 355 11.3 15.6 0.00 0.00 0.00 7 1002.9
20260509231509 83 5 6.1 12.2 0.00 0.00 0.00 7 1002.8
20260509230008 83 355 13.0 15.6 0.00 0.00 0.00 7 1002.9
20260509224506 84 325 10.4 15.6 0.00 0.00 0.00 8 1002.8
20260509223009 85 346 9.6 14.8 0.00 0.00 0.00 7 1002.9
20260509221519 84 304 4.3 14.8 0.00 0.00 0.00 7 1003.0
20260509220010 84 250 3.5 9.6 0.00 0.00 0.00 8 1003.1
20260509214613 83 360 2.6 5.2 0.00 0.00 0.00 8 1003.4
20260509213142 83 350 7.8 11.3 0.00 0.00 0.00 10 1003.5
20260509211507 83 325 7.0 13.9 0.00 0.00 0.00 10 1003.5
20260509210005 83 324 7.0 12.2 0.00 0.00 0.00 9 1003.7
20260509204505 83 331 8.7 13.0 0.00 0.00 0.00 10 1003.8
20260509203004 83 16 4.3 13.9 0.00 0.00 0.00 9 1003.8
20260509201503 83 328 4.3 13.9 0.00 0.00 0.00 11 1004.0
20260509200027 83 336 7.0 12.2 0.00 0.00 0.00 10 1004.1
20260509194522 84 38 6.1 9.6 0.00 0.00 0.00 10 1004.3
20260509193026 83 73 6.1 12.2 0.00 0.00 0.00 10 1004.4
20260509191559 83 301 1.7 10.4 0.00 0.00 0.00 13 1004.6
20260509190017 83 342 6.1 8.7 0.00 0.00 0.00 10 1004.7
20260509184504 82 252 2.6 13.0 0.00 0.00 0.00 12 1005.0
20260509183121 81 316 8.7 12.2 0.00 0.00 0.00 13 1005.2
20260509181610 81 294 4.3 13.9 0.00 0.00 0.00 13 1005.4
20260509180111 80 325 7.0 13.0 0.00 0.00 0.00 14 1005.5
20260509174600 79 330 4.3 13.0 0.00 0.00 0.00 14 1005.6
20260509173058 79 315 6.1 10.4 0.00 0.00 0.00 15 1005.9
20260509171555 79 324 9.6 14.8 0.00 0.00 0.00 15 1005.8
20260509170059 78 324 7.8 13.9 0.00 0.00 0.00 15 1006.0
20260509164549 77 277 4.3 8.7 0.00 0.00 0.00 16 1005.9
20260509163103 75 42 2.6 6.1 0.00 0.00 0.00 21 1006.0
20260509161541 73 59 1.7 5.2 0.00 0.00 0.00 22 1006.2
20260509160038 72 61 0.0 2.6 0.00 0.00 0.00 23 1006.3
20260509154542 71 61 0.9 2.6 0.00 0.00 0.00 28 1006.4
20260509153033 70 61 0.0 2.6 0.00 0.00 0.00 26 1006.5
20260509151514 68 61 0.0 0.9 0.00 0.00 0.00 28 1006.5
20260509150056 66 61 0.0 0.9 0.00 0.00 0.00 28 1006.5
20260509144506 64 61 0.0 1.7 0.00 0.00 0.00 29 1006.6
20260509143018 62 61 0.9 2.6 0.00 0.00 0.00 31 1006.5
20260509141530 60 61 0.9 3.5 0.00 0.00 0.00 34 1006.4
20260509140023 58 42 0.0 0.0 0.00 0.00 0.00 39 1006.3
20260509134508 56 41 0.0 0.0 0.00 0.00 0.00 44 1006.3
20260509133021 55 41 0.0 0.0 0.00 0.00 0.00 42 1006.1
20260509131613 54 41 0.0 0.0 0.00 0.00 0.00 39 1006.0
20260509130005 54 41 0.0 1.7 0.00 0.00 0.00 42 1005.8
20260509124547 54 41 0.0 0.0 0.00 0.00 0.00 41 1005.8
20260509123050 54 41 0.9 1.7 0.00 0.00 0.00 41 1005.7
20260509121538 55 41 0.0 3.5 0.00 0.00 0.00 39 1005.3
20260509114558 56 41 1.7 2.6 0.00 0.00 0.00 32 1005.1
20260509113133 57 41 0.0 0.0 0.00 0.00 0.00 37 1005.0
20260509111506 58 41 0.0 3.5 0.00 0.00 0.00 30 1004.9
20260509110052 60 42 0.0 1.7 0.00 0.00 0.00 36 1004.8
20260509104557 60 5 0.0 0.0 0.00 0.00 0.00 33 1004.7
20260509103055 61 5 0.0 0.0 0.00 0.00 0.00 30 1004.5
20260509101547 62 5 0.0 1.7 0.00 0.00 0.00 28 1004.6
20260509100104 63 5 0.0 3.5 0.00 0.00 0.00 28 1004.5
20260509094551 64 5 1.7 3.5 0.00 0.00 0.00 27 1004.5
20260509093044 65 350 2.6 4.3 0.00 0.00 0.00 28 1004.5
20260509091551 64 311 3.5 7.0 0.00 0.00 0.00 28 1004.4
20260509090140 64 313 2.6 7.0 0.00 0.00 0.00 28 1004.4
20260509084541 63 337 0.9 4.3 0.00 0.00 0.00 28 1004.4
20260509083044 63 336 2.6 4.3 0.00 0.00 0.00 28 1004.4
20260509081539 61 75 0.0 2.6 0.00 0.00 0.00 30 1004.3
20260509080045 61 76 0.0 0.9 0.00 0.00 0.00 34 1004.3
20260509074538 62 75 0.0 1.7 0.00 0.00 0.00 31 1004.1
20260509073036 62 75 0.0 1.7 0.00 0.00 0.00 31 1004.0
20260509071529 64 75 0.0 2.6 0.00 0.00 0.00 32 1004.2
20260509070025 64 76 1.7 2.6 0.00 0.00 0.00 26 1004.2
20260509064529 66 74 0.9 3.5 0.00 0.00 0.00 24 1004.2
20260509063018 67 33 0.0 2.6 0.00 0.00 0.00 24 1004.2
20260509061532 68 33 2.6 5.2 0.00 0.00 0.00 23 1004.4